TimeCDT,TemperatureF,Dew PointF,Humidity,Sea Level PressureIn,VisibilityMPH,Wind Direction,Wind SpeedMPH,Gust SpeedMPH,PrecipitationIn,Events,Conditions,WindDirDegrees,DateUTC
12:15 AM,71.6,57.2,60,30.02,10.0,SSW,13.8,-,N/A,,Clear,210,2013-05-15 05:15:00
12:35 AM,71.6,57.2,60,30.02,10.0,SSW,16.1,-,N/A,,Clear,210,2013-05-15 05:35:00
12:55 AM,69.8,57.2,64,30.02,10.0,SSW,13.8,-,N/A,,Clear,210,2013-05-15 05:55:00
1:15 AM,69.8,57.2,64,30.02,10.0,SSW,12.7,-,N/A,,Clear,210,2013-05-15 06:15:00
1:35 AM,69.8,57.2,64,30.02,10.0,SSW,12.7,-,N/A,,Clear,210,2013-05-15 06:35:00
1:55 AM,69.8,57.2,64,30.02,10.0,SW,12.7,-,N/A,,Clear,220,2013-05-15 06:55:00
2:15 AM,68.0,55.4,64,30.02,10.0,SSW,12.7,-,N/A,,Clear,210,2013-05-15 07:15:00
2:35 AM,66.2,57.2,73,30.02,10.0,SSW,11.5,-,N/A,,Clear,210,2013-05-15 07:35:00
2:55 AM,66.2,55.4,68,30.03,10.0,SSW,10.4,-,N/A,,Clear,210,2013-05-15 07:55:00
3:15 AM,64.4,55.4,73,30.03,10.0,SW,9.2,-,N/A,,Clear,220,2013-05-15 08:15:00
3:35 AM,62.6,57.2,82,30.03,10.0,SSW,6.9,-,N/A,,Clear,200,2013-05-15 08:35:00
3:55 AM,62.6,55.4,77,30.04,10.0,South,8.1,-,N/A,,Clear,190,2013-05-15 08:55:00
4:15 AM,62.6,55.4,77,30.04,10.0,SSW,6.9,-,N/A,,Clear,200,2013-05-15 09:15:00
4:35 AM,60.8,55.4,82,30.04,10.0,SSW,8.1,-,N/A,,Clear,200,2013-05-15 09:35:00
4:55 AM,60.8,55.4,82,30.04,10.0,South,10.4,-,N/A,,Clear,190,2013-05-15 09:55:00
5:15 AM,60.8,55.4,82,30.04,10.0,South,8.1,-,N/A,,Clear,170,2013-05-15 10:15:00
5:35 AM,59.0,55.4,88,30.04,10.0,South,6.9,-,N/A,,Clear,170,2013-05-15 10:35:00
5:55 AM,59.0,55.4,88,30.04,10.0,SSE,9.2,-,N/A,,Clear,160,2013-05-15 10:55:00
6:15 AM,59.0,55.4,88,30.05,10.0,South,9.2,-,N/A,,Clear,190,2013-05-15 11:15:00
6:35 AM,60.8,55.4,82,30.05,10.0,South,9.2,-,N/A,,Clear,190,2013-05-15 11:35:00
6:55 AM,62.6,57.2,82,30.04,10.0,South,11.5,-,N/A,,Clear,190,2013-05-15 11:55:00
7:15 AM,62.6,57.2,82,30.05,10.0,SSW,11.5,-,N/A,,Clear,200,2013-05-15 12:15:00
7:35 AM,64.4,57.2,77,30.05,10.0,SSW,12.7,-,N/A,,Clear,200,2013-05-15 12:35:00
7:55 AM,66.2,55.4,68,30.06,10.0,SSW,15.0,-,N/A,,Clear,200,2013-05-15 12:55:00
8:15 AM,68.0,55.4,64,30.06,10.0,SSW,13.8,-,N/A,,Clear,200,2013-05-15 13:15:00
8:35 AM,69.8,55.4,60,30.07,10.0,SW,11.5,-,N/A,,Clear,220,2013-05-15 13:35:00
8:55 AM,71.6,53.6,53,30.07,10.0,SSW,12.7,-,N/A,,Clear,210,2013-05-15 13:55:00
9:15 AM,71.6,55.4,57,30.07,10.0,SSW,12.7,-,N/A,,Clear,210,2013-05-15 14:15:00
9:35 AM,73.4,55.4,53,30.06,10.0,SSW,13.8,-,N/A,,Clear,210,2013-05-15 14:35:00
9:55 AM,73.4,55.4,53,30.06,10.0,SW,15.0,19.6,N/A,,Clear,220,2013-05-15 14:55:00
10:15 AM,75.2,57.2,53,30.05,10.0,SSW,15.0,-,N/A,,Clear,210,2013-05-15 15:15:00
10:35 AM,75.2,59.0,57,30.05,10.0,SSW,18.4,-,N/A,,Clear,210,2013-05-15 15:35:00
10:55 AM,78.8,60.8,54,30.05,10.0,SSW,15.0,-,N/A,,Clear,210,2013-05-15 15:55:00
11:15 AM,78.8,60.8,54,30.04,10.0,SW,18.4,23.0,N/A,,Clear,220,2013-05-15 16:15:00
11:35 AM,78.8,62.6,57,30.04,10.0,SSW,18.4,24.2,N/A,,Clear,210,2013-05-15 16:35:00
11:55 AM,80.6,62.6,54,30.03,10.0,WSW,19.6,23.0,N/A,,Clear,240,2013-05-15 16:55:00
12:15 PM,80.6,62.6,54,30.03,10.0,SW,16.1,23.0,N/A,,Clear,220,2013-05-15 17:15:00
12:35 PM,80.6,62.6,54,30.02,10.0,SW,16.1,20.7,N/A,,Clear,220,2013-05-15 17:35:00
12:55 PM,80.6,64.4,58,30.01,10.0,SSW,15.0,-,N/A,,Clear,210,2013-05-15 17:55:00
1:15 PM,80.6,64.4,58,30.01,10.0,SSW,17.3,21.9,N/A,,Clear,200,2013-05-15 18:15:00
1:35 PM,82.4,64.4,54,30.00,10.0,South,17.3,23.0,N/A,,Clear,190,2013-05-15 18:35:00
1:55 PM,80.6,62.6,54,29.98,10.0,South,19.6,25.3,N/A,,Clear,190,2013-05-15 18:55:00
2:15 PM,80.6,64.4,58,29.98,10.0,South,17.3,26.5,N/A,,Clear,190,2013-05-15 19:15:00
2:35 PM,80.6,62.6,54,29.98,10.0,SSW,20.7,27.6,N/A,,Clear,200,2013-05-15 19:35:00
2:55 PM,80.6,64.4,58,29.97,10.0,SSW,16.1,-,N/A,,Clear,210,2013-05-15 19:55:00
3:15 PM,80.6,62.6,54,29.96,10.0,SW,15.0,21.9,N/A,,Clear,220,2013-05-15 20:15:00
3:35 PM,82.4,64.4,54,29.95,10.0,SSW,17.3,-,N/A,,Clear,210,2013-05-15 20:35:00
3:55 PM,80.6,64.4,58,29.95,10.0,SSW,16.1,-,N/A,,Clear,210,2013-05-15 20:55:00
4:15 PM,82.4,64.4,54,29.94,10.0,SW,18.4,-,N/A,,Clear,220,2013-05-15 21:15:00
4:35 PM,82.4,64.4,54,29.94,10.0,SSW,19.6,-,N/A,,Clear,210,2013-05-15 21:35:00
4:55 PM,82.4,64.4,54,29.93,10.0,SSW,16.1,-,N/A,,Clear,200,2013-05-15 21:55:00
5:15 PM,80.6,62.6,54,29.93,10.0,SSW,19.6,25.3,N/A,,Clear,200,2013-05-15 22:15:00
5:35 PM,80.6,62.6,54,29.94,10.0,SSW,16.1,-,N/A,,Partly Cloudy,210,2013-05-15 22:35:00
5:55 PM,80.6,60.8,51,29.93,10.0,SSW,19.6,-,N/A,,Partly Cloudy,200,2013-05-15 22:55:00
6:15 PM,78.8,60.8,54,29.93,10.0,SSW,16.1,-,N/A,,Clear,200,2013-05-15 23:15:00
6:35 PM,78.8,60.8,54,29.93,10.0,SSW,17.3,20.7,N/A,,Clear,200,2013-05-15 23:35:00
6:55 PM,78.8,60.8,54,29.93,10.0,SSW,15.0,-,N/A,,Clear,210,2013-05-15 23:55:00
7:15 PM,78.8,62.6,57,29.93,10.0,SW,11.5,-,N/A,,Clear,220,2013-05-16 00:15:00
7:35 PM,77.0,62.6,61,29.94,10.0,SSW,11.5,-,N/A,,Clear,210,2013-05-16 00:35:00
7:55 PM,77.0,62.6,61,29.94,10.0,SSW,11.5,17.3,N/A,,Clear,210,2013-05-16 00:55:00
8:15 PM,75.2,60.8,61,29.94,10.0,SSW,9.2,-,N/A,,Clear,210,2013-05-16 01:15:00
8:35 PM,75.2,60.8,61,29.95,10.0,South,10.4,-,N/A,,Clear,190,2013-05-16 01:35:00
8:55 PM,75.2,60.8,61,29.95,10.0,SSW,12.7,-,N/A,,Clear,200,2013-05-16 01:55:00
9:15 PM,75.2,60.8,61,29.95,10.0,SSW,13.8,21.9,N/A,,Clear,210,2013-05-16 02:15:00
9:35 PM,75.2,60.8,61,29.95,10.0,SW,12.7,20.7,N/A,,Clear,220,2013-05-16 02:35:00
9:55 PM,73.4,60.8,65,29.96,10.0,SW,11.5,-,N/A,,Clear,220,2013-05-16 02:55:00
10:15 PM,73.4,62.6,69,29.96,10.0,SW,8.1,-,N/A,,Clear,220,2013-05-16 03:15:00
10:35 PM,73.4,62.6,69,29.96,10.0,SW,8.1,-,N/A,,Clear,230,2013-05-16 03:35:00
10:55 PM,71.6,62.6,73,29.96,10.0,South,5.8,-,N/A,,Clear,190,2013-05-16 03:55:00
11:15 PM,71.6,62.6,73,29.96,10.0,SSW,6.9,-,N/A,,Partly Cloudy,200,2013-05-16 04:15:00
11:35 PM,71.6,60.8,69,29.95,10.0,South,8.1,-,N/A,,Partly Cloudy,190,2013-05-16 04:35:00
11:55 PM,71.6,60.8,69,29.95,10.0,South,9.2,-,N/A,,Partly Cloudy,190,2013-05-16 04:55:00